Regional Weather Roundup
Issued by NWS Bismarck, ND

Home | Current Version | Previous Version | Text Only | Print | Product List | Glossary On
Versions: 1 2 3 4 5 6 7 8 9 10 11 12 13 14 15 16 17 18 19 20 21 22 23 24 25 26 27 28 29 30 31 32 33 34 35 36 37 38 39 40 41 42 43 44 45 46 47 48 49 50
950
ASUS43 KBIS 301602
RWRBIS

NWR BROADCAST TEXT
NATIONAL WEATHER SERVICE BISMARCK ND
1100 AM CDT FRI SEP 30 2016

NOTE: "FAIR" INDICATES FEW OR NO CLOUDS BELOW 12,000 FEET WITH NO
SIGNIFICANT WEATHER AND/OR OBSTRUCTIONS TO VISIBILITY.


CITY           SKY/WX    TMP DP  RH WIND       PRES   REMARKS
WILLISTON      MOSUNNY   60  47  61 S8        30.03R
MINOT          CLOUDY    59  47  64 SE16G24   30.09F
MINOT AFB      CLOUDY    59  48  67 SE14      30.08S
BISMARCK       CLOUDY    59  48  67 SE13      30.16S
DICKINSON      MOSUNNY   56  44  64 S16       30.05S
GARRISON         N/A     57  48  72 SE14G22   30.09F
HETTINGER ARPT CLOUDY    59  43  55 SE12      30.10R
JAMESTOWN      PTSUNNY   58  49  72 S17G23    30.26S
BEACH          FAIR      59  46  63 S15G21    30.06R
CARRINGTON     FAIR      55  48  76 S22       30.24S
HAZEN          FAIR      57  46  67 NW8       30.11S
RUGBY          FAIR      57  48  72 S15G22    30.17F
STANLEY        FAIR      55  52  88 S16G23    30.09S
$$

CITY           SKY/WX    TMP DP  RH WIND       PRES   REMARKS
GRAND FORKS    MOSUNNY   60  51  72 S14       30.31S
GRAND FORKS AF SUNNY     58  50  74 S12       30.30F
DEVILS LAKE    PTSUNNY   57  49  74 SE18G25   30.24
FARGO          SUNNY     62  51  67 SE16      30.32F
CANDO          FAIR      61  52  72 S18       30.24S
CAVALIER       FAIR      55  50  82 S13       30.29F
GRAFTON        FAIR      57  52  82 SE16      30.32S
GWINNER        FAIR      61  52  72 SE9       30.31F
LANGDON        FAIR      61  52  72 S20       30.25F
ROLLA          FAIR      54  48  82 S17G23    30.20S
WALHALLA       FAIR      54  48  82 S8        30.28F
$$

CITY           SKY/WX    TMP DP  RH WIND       PRES   REMARKS
ABERDEEN       PTSUNNY   64  47  53 S14       30.28F
MOBRIDGE       MOSUNNY   66  47  50 S23G30    30.14S
BUFFALO          N/A     63  45  51 S10       30.02R
RAPID CITY     PTSUNNY   61  45  55 S14       30.08S
GLASGOW        CLOUDY    67  48  50 SE12      29.97R
SIDNEY         CLOUDY    60  50  69 E6        30.00F
WOLF POINT     MOSUNNY   63  50  62 E7        29.98S
GLENDIVE       CLOUDY    58  50  75 SW6       30.01R
MILES CITY     CLOUDY    67  52  58 SE6       30.00S
BAKER          CLOUDY    59  47  64 SE12      30.05S
$$

CITY           SKY/WX    TMP DP  RH WIND       PRES   REMARKS
BILLINGS       MOSUNNY   66  49  54 SW12      30.06S
GREAT FALLS    SUNNY     63  45  51 SW13      30.03S
$$





USA.gov is the U.S. government's official web portal to all federal, state and local government web resources and services.